Starlink 1304

operational
NORAD ID: 45376 Int'l Des: 2020-019 Owner: SPXS Country: US Constellation: starlink
LEOCIRCULARSTARLINK_TYPE

Starlink 1304について

説明を読み込み中...

リアルタイム位置

3D地球を読み込み中...

次回通過

高度履歴

Altitude vs Time

uPlot chart will show altitude changes over time

軌道要素

1 45376U 20019S 25304.61781591 .00017870 00000-0 12147-2 0 9999
2 45376 53.0543 26.0411 0001423 78.9392 281.1757 15.06426262310277
Epoch: Oct 31, 2025 • Age: 24 hours

現在のステータス

高度 548.5 km
速度 7.59 km/s
衛星直下点 -4.29°S, 116.9°E
打ち上げ日 Mar 18, 2020
運用期間 5.6 years
タイプ internet

技術仕様

分類 Payload
質量 260.00 kg
乾燥質量 248.00 kg
総質量 260.00 kg
長さ 0.20 m
直径 2.80 m
スパン 9.00 m
形状 Box + pan
製造者 SPXS
バスタイプ Starlink
フェーズステータス In Orbit
所有者/国 SPXS/US

大規模コンステレーション

Loading constellations...